QPF
0.00 0.00 0.00 0.00 0.00 0.00 0.00 0.00 0.00 0.00 0.00 0.00 0.00 0.00 0.00 0.00 0.00 0.00 0.00 0.00 0.00 0.00 0.00 0.00 0.00 0.00 0.00 0.00 0.00 0.00 0.00 0.00 0.00 0.00 0.00 0.00 0.00 0.00 0.00 0.00 0.00 0.00 0.00 0.00
0.00 0.00 0.00 0.00 0.00 0.00 0.00 0.00 0.00 0.00 0.00 0.00 0.00 0.00 0.00 0.00 0.00 0.00 0.00 0.00 0.00 0.00 0.00 0.00 0.00 0.00 0.00 0.00 0.00 0.00 0.00 0.00 0.00 0.00 0.00 0.00 0.00 0.00 0.00 0.00 0.00 0.00 0.00 0.00
0.00 0.00 0.00 0.00 0.00 0.00 0.00 0.00 0.00 0.00 0.00 0.00 0.00 0.00 0.00 0.00 0.00 0.00 0.00 0.00 0.00 0.00 0.00 0.00 0.00 0.00 0.00 0.00 0.00 0.00 0.00 0.00 0.00 0.00 0.00 0.00 0.00 0.00 0.00 0.00 0.00 0.00 0.00 0.00
0.00 0.00 0.00 0.00 0.00 0.00 0.00 0.00 0.00 0.00 0.00 0.00 0.00 0.00 0.00 0.00 0.00 0.00 0.00 0.00 0.00 0.00 0.00 0.00 0.00 0.00 0.00 0.00 0.00 0.00 0.00 0.00 0.00 0.00 0.00 0.00 0.00 0.00 0.00 0.00 0.00 0.00 0.00 0.00
0.00 0.00 0.00 0.00 0.00 0.00 0.00 0.00 0.00 0.00 0.00 0.00 0.00 0.00 0.00 0.00 0.00 0.00 0.00 0.00 0.00 0.00 0.00 0.00 0.00 0.00 0.00 0.00 0.00 0.00 0.00 0.00 0.00 0.00 0.00 0.00 0.00 0.00 0.00 0.00 0.00 0.00 0.00 0.00
0.00 0.00 0.00 0.00 0.00 0.00 0.00 0.00 0.00 0.00 0.00 0.00 0.00 0.00 0.00 0.00 0.00 0.00 0.00 0.00 0.00 0.00 0.00 0.00 0.00 0.00 0.00 0.00 0.00 0.00 0.00 0.00 0.00 0.00 0.00 0.00 0.00 0.00 0.00 0.00 0.00 0.00 0.00 0.00
0.00 0.00 0.00 0.00 0.00 0.00 0.00 0.00 0.00 0.00 0.00 0.00 0.00 0.00 0.00 0.00 0.00 0.00 0.00 0.00 0.00 0.00 0.00 0.00 0.00 0.00 0.00 0.00 0.00 0.00 0.00 0.00 0.00 0.00 0.00 0.00 0.00 0.00 0.00 0.00 0.00 0.00 0.00 0.00
0.00 0.00 0.00 0.00 0.00 0.00 0.00 0.00 0.00 0.00 0.00 0.00 0.00 0.00 0.00 0.00 0.00 0.00 0.00 0.00 0.00 0.00 0.00 0.00 0.00 0.00 0.00 0.00 0.00 0.00 0.00 0.00 0.00 0.00 0.00 0.00 0.00 0.00 0.00 0.00 0.00 0.00 0.00 0.00
0.00 0.00 0.00 0.00 0.00 0.00 0.00 0.00 0.00 0.00 0.00 0.00 0.00 0.00 0.00 0.00 0.00 0.00 0.00 0.00 0.00 0.00 0.00 0.00 0.00 0.00 0.00 0.00 0.00 0.00 0.00 0.00 0.00 0.00 0.00 0.00 0.00 0.00 0.00 0.00 0.00 0.00 0.00 0.00
0.00 0.00 0.00 0.00 0.00 0.00 0.00 0.00 0.00 0.00 0.00 0.00 0.00 0.00 0.00 0.00 0.00 0.00 0.00 0.00 0.00 0.00 0.00 0.00 0.00 0.00 0.00 0.00 0.00 0.00 0.00 0.00 0.00 0.00 0.00 0.00 0.00 0.00 0.00 0.00 0.00 0.00 0.00 0.00
0.00 0.00 0.00 0.00 0.00 0.00 0.00 0.00 0.00 0.00 0.00 0.00 0.00 0.00 0.00 0.00 0.00 0.00 0.00 0.00 0.00 0.00 0.00 0.00 0.00 0.00 0.00 0.00 0.00 0.00 0.00 0.00 0.00 0.00 0.00 0.00 0.00 0.00 0.00 0.00 0.00 0.00 0.00 0.00
0.00 0.00 0.00 0.00 0.00 0.00 0.00 0.00 0.00 0.00 0.00 0.00 0.00 0.00 0.00 0.00 0.00 0.00 0.00 0.00 0.00 0.00 0.00 0.00 0.00 0.00 0.00 0.00 0.00 0.00 0.00 0.00 0.00 0.00 0.00 0.00 0.00 0.00 0.00 0.00 0.00 0.00 0.00 0.00
0.00 0.00 0.00 0.00 0.00 0.00 0.00 0.00 0.00 0.00 0.00 0.00 0.00 0.00 0.00 0.00 0.00 0.00 0.00 0.00 0.00 0.00 0.00 0.00 0.00 0.00 0.00 0.00 0.00 0.00 0.00 0.00 0.00 0.00 0.00 0.00 0.00 0.00 0.00 0.00 0.00 0.00 0.00 0.00
0.00 0.00 0.00 0.00 0.00 0.00 0.00 0.00 0.00 0.00 0.00 0.00 0.00 0.00 0.00 0.00 0.00 0.00 0.00 0.00 0.00 0.00 0.00 0.00 0.00 0.00 0.00 0.00 0.00 0.00 0.00 0.00 0.00 0.00 0.00 0.00 0.00 0.00 0.00 0.00 0.00 0.00 0.00 0.00
0.00 0.00 0.00 0.00 0.00 0.00 0.00 0.00 0.00 0.00 0.00 0.00 0.00 0.00 0.00 0.00 0.00 0.00 0.00 0.00 0.00 0.00 0.00 0.00 0.00 0.00 0.00 0.00 0.00 0.00 0.00 0.00 0.00 0.00 0.00 0.00 0.00 0.00 0.00 0.00 0.00 0.00 0.00 0.00
0.00 0.00 0.00 0.00 0.00 0.00 0.00 0.00 0.00 0.00 0.00 0.00 0.00 0.00 0.00 0.00 0.00 0.00 0.00 0.00 0.00 0.00 0.00 0.00 0.00 0.00 0.00 0.00 0.00 0.00 0.00 0.00 0.00 0.00 0.00 0.00 0.00 0.00 0.00 0.00 0.00 0.00 0.00 0.00
0.00 0.00 0.00 0.00 0.00 0.00 0.00 0.00 0.00 0.00 0.00 0.00 0.00 0.00 0.00 0.00 0.00 0.00 0.00 0.00 0.00 0.00 0.00 0.00 0.00 0.00 0.00 0.00 0.00 0.00 0.00 0.00 0.00 0.00 0.00 0.00 0.00 0.00 0.00 0.00 0.00 0.00 0.00 0.00
0.00 0.00 0.00 0.00 0.00 0.00 0.00 0.00 0.00 0.00 0.00 0.00 0.00 0.00 0.00 0.00 0.00 0.00 0.00 0.00 0.00 0.00 0.00 0.00 0.00 0.00 0.00 0.00 0.00 0.00 0.00 0.01 0.01 0.01 0.01 0.01 0.01 0.01 0.00 0.00 0.00 0.00 0.00 0.00
0.00 0.00 0.00 0.00 0.00 0.00 0.00 0.00 0.00 0.00 0.00 0.00 0.00 0.00 0.00 0.00 0.00 0.00 0.00 0.00 0.00 0.00 0.00 0.00 0.01 0.01 0.00 0.00 0.01 0.01 0.01 0.01 0.01 0.02 0.02 0.02 0.02 0.02 0.02 0.01 0.01 0.01 0.01 0.00
0.00 0.00 0.00 0.00 0.00 0.00 0.00 0.00 0.00 0.00 0.00 0.00 0.00 0.00 0.00 0.00 0.00 0.00 0.00 0.00 0.00 0.00 0.00 0.00 0.01 0.00 0.00 0.00 0.01 0.01 0.01 0.02 0.02 0.03 0.03 0.03 0.03 0.03 0.03 0.02 0.01 0.01 0.01 0.00
0.00 0.00 0.00 0.00 0.00 0.00 0.00 0.00 0.00 0.00 0.00 0.00 0.00 0.01 0.01 0.01 0.01 0.01 0.02 0.01 0.01 0.01 0.01 0.01 0.01 0.01 0.01 0.01 0.01 0.01 0.02 0.02 0.02 0.03 0.03 0.03 0.03 0.03 0.03 0.03 0.02 0.01 0.01 0.00
0.00 0.00 0.00 0.00 0.00 0.00 0.00 0.00 0.00 0.00 0.00 0.00 0.00 0.00 0.00 0.00 0.01 0.01 0.01 0.01 0.01 0.01 0.01 0.01 0.01 0.01 0.02 0.02 0.01 0.02 0.02 0.03 0.03 0.03 0.03 0.03 0.02 0.02 0.03 0.03 0.02 0.02 0.01 0.01
0.00 0.00 0.00 0.00 0.00 0.00 0.00 0.00 0.00 0.00 0.00 0.00 0.00 0.00 0.00 0.00 0.00 0.01 0.01 0.01 0.01 0.01 0.01 0.01 0.02 0.02 0.03 0.02 0.02 0.03 0.04 0.04 0.04 0.04 0.04 0.04 0.03 0.02 0.02 0.02 0.02 0.02 0.02 0.01
0.00 0.00 0.00 0.00 0.00 0.00 0.00 0.00 0.00 0.00 0.00 0.00 0.00 0.01 0.01 0.01 0.00 0.01 0.01 0.01 0.02 0.02 0.02 0.02 0.02 0.03 0.04 0.02 0.03 0.03 0.05 0.05 0.05 0.06 0.05 0.05 0.05 0.04 0.03 0.02 0.02 0.02 0.01 0.01
0.00 0.00 0.00 0.00 0.00 0.00 0.01 0.01 0.01 0.01 0.01 0.01 0.01 0.01 0.01 0.01 0.01 0.00 0.01 0.01 0.02 0.02 0.02 0.03 0.04 0.04 0.03 0.03 0.03 0.04 0.05 0.07 0.07 0.08 0.08 0.08 0.07 0.06 0.05 0.04 0.03 0.02 0.02 0.01
0.00 0.00 0.00 0.00 0.00 0.01 0.01 0.01 0.01 0.01 0.01 0.01 0.01 0.01 0.00 0.00 0.00 0.01 0.01 0.01 0.02 0.02 0.03 0.03 0.04 0.05 0.04 0.04 0.04 0.05 0.06 0.07 0.08 0.09 0.11 0.11 0.11 0.10 0.09 0.08 0.06 0.05 0.04 0.03
0.00 0.00 0.00 0.00 0.00 0.01 0.01 0.01 0.01 0.01 0.01 0.01 0.01 0.01 0.01 0.01 0.01 0.01 0.02 0.02 0.02 0.02 0.03 0.04 0.05 0.06 0.06 0.06 0.06 0.07 0.07 0.08 0.09 0.09 0.10 0.12 0.13 0.12 0.10 0.09 0.08 0.08 0.06 0.05
MSLP
1014.64 1014.72 1014.82 1014.91 1014.96 1014.92 1014.76 1014.43 1013.92 1013.23 1012.38 1011.43 1010.44 1009.48 1008.62 1007.88 1007.31 1006.89 1006.61 1006.44 1006.34 1006.27 1006.23 1006.21 1006.21 1006.26 1006.38 1006.60 1006.91 1007.32 1007.81 1008.35 1008.89 1009.42 1009.89 1010.28 1010.60 1010.84 1011.02 1011.16 1011.28 1011.40 1011.52 1011.67
1014.92 1014.90 1014.84 1014.74 1014.59 1014.35 1014.02 1013.57 1013.02 1012.35 1011.61 1010.82 1010.02 1009.26 1008.57 1007.96 1007.45 1007.03 1006.68 1006.38 1006.12 1005.89 1005.68 1005.51 1005.41 1005.38 1005.47 1005.69 1006.02 1006.47 1007.00 1007.58 1008.18 1008.74 1009.25 1009.68 1010.03 1010.30 1010.51 1010.68 1010.83 1010.98 1011.13 1011.30
1015.19 1015.10 1014.94 1014.72 1014.43 1014.07 1013.64 1013.13 1012.56 1011.94 1011.29 1010.63 1009.98 1009.36 1008.78 1008.25 1007.76 1007.29 1006.85 1006.42 1006.00 1005.59 1005.22 1004.92 1004.70 1004.59 1004.63 1004.81 1005.14 1005.60 1006.14 1006.74 1007.36 1007.95 1008.48 1008.95 1009.33 1009.65 1009.90 1010.12 1010.31 1010.49 1010.69 1010.88
1015.49 1015.37 1015.17 1014.89 1014.55 1014.14 1013.67 1013.15 1012.60 1012.02 1011.44 1010.87 1010.31 1009.77 1009.25 1008.73 1008.21 1007.68 1007.13 1006.57 1006.00 1005.44 1004.93 1004.49 1004.16 1003.97 1003.93 1004.06 1004.34 1004.76 1005.27 1005.85 1006.45 1007.04 1007.60 1008.09 1008.52 1008.88 1009.20 1009.47 1009.72 1009.96 1010.18 1010.41
1015.85 1015.71 1015.51 1015.23 1014.89 1014.48 1014.03 1013.54 1013.02 1012.50 1011.97 1011.44 1010.93 1010.41 1009.89 1009.34 1008.77 1008.16 1007.52 1006.84 1006.15 1005.48 1004.85 1004.30 1003.87 1003.58 1003.45 1003.49 1003.68 1004.01 1004.45 1004.96 1005.51 1006.07 1006.62 1007.13 1007.60 1008.03 1008.41 1008.76 1009.07 1009.37 1009.64 1009.90
1016.22 1016.08 1015.89 1015.65 1015.34 1014.99 1014.59 1014.15 1013.68 1013.20 1012.71 1012.20 1011.69 1011.17 1010.62 1010.03 1009.40 1008.72 1008.00 1007.24 1006.47 1005.71 1005.01 1004.37 1003.85 1003.47 1003.22 1003.14 1003.21 1003.40 1003.71 1004.11 1004.57 1005.07 1005.59 1006.10 1006.61 1007.10 1007.56 1007.98 1008.38 1008.74 1009.06 1009.35
1016.55 1016.41 1016.23 1016.03 1015.78 1015.49 1015.16 1014.79 1014.39 1013.95 1013.49 1013.00 1012.48 1011.93 1011.34 1010.71 1010.04 1009.31 1008.55 1007.75 1006.94 1006.15 1005.40 1004.71 1004.11 1003.62 1003.26 1003.03 1002.93 1002.96 1003.10 1003.34 1003.67 1004.08 1004.54 1005.05 1005.58 1006.12 1006.66 1007.17 1007.65 1008.08 1008.46 1008.78
1016.78 1016.60 1016.44 1016.27 1016.08 1015.87 1015.61 1015.32 1014.98 1014.59 1014.16 1013.69 1013.17 1012.60 1011.99 1011.34 1010.64 1009.90 1009.12 1008.33 1007.53 1006.73 1005.97 1005.25 1004.59 1004.01 1003.52 1003.12 1002.84 1002.67 1002.61 1002.67 1002.85 1003.13 1003.52 1003.99 1004.53 1005.12 1005.73 1006.33 1006.89 1007.40 1007.83 1008.19
1016.83 1016.62 1016.44 1016.30 1016.16 1016.02 1015.84 1015.63 1015.36 1015.03 1014.64 1014.19 1013.68 1013.11 1012.50 1011.84 1011.15 1010.42 1009.68 1008.91 1008.15 1007.38 1006.63 1005.89 1005.19 1004.52 1003.91 1003.36 1002.89 1002.51 1002.24 1002.11 1002.11 1002.25 1002.55 1002.97 1003.51 1004.13 1004.79 1005.46 1006.11 1006.69 1007.19 1007.60
1016.71 1016.45 1016.26 1016.12 1016.03 1015.94 1015.83 1015.68 1015.48 1015.22 1014.87 1014.46 1013.97 1013.43 1012.83 1012.19 1011.52 1010.83 1010.13 1009.42 1008.71 1007.99 1007.27 1006.54 1005.80 1005.07 1004.34 1003.65 1003.00 1002.43 1001.96 1001.63 1001.46 1001.46 1001.64 1002.01 1002.52 1003.15 1003.86 1004.60 1005.32 1005.97 1006.55 1007.02
1016.44 1016.13 1015.92 1015.79 1015.72 1015.67 1015.62 1015.53 1015.39 1015.18 1014.88 1014.51 1014.06 1013.53 1012.96 1012.35 1011.72 1011.08 1010.43 1009.78 1009.13 1008.46 1007.77 1007.06 1006.31 1005.53 1004.72 1003.90 1003.11 1002.37 1001.73 1001.22 1000.89 1000.75 1000.83 1001.12 1001.59 1002.22 1002.95 1003.74 1004.52 1005.25 1005.89 1006.43
1016.09 1015.77 1015.54 1015.41 1015.35 1015.32 1015.30 1015.25 1015.15 1014.98 1014.72 1014.38 1013.95 1013.46 1012.91 1012.33 1011.73 1011.12 1010.52 1009.92 1009.32 1008.70 1008.06 1007.37 1006.62 1005.82 1004.96 1004.06 1003.16 1002.30 1001.51 1000.86 1000.39 1000.12 1000.10 1000.30 1000.73 1001.33 1002.07 1002.88 1003.72 1004.52 1005.24 1005.86
1015.79 1015.46 1015.23 1015.09 1015.02 1015.00 1014.98 1014.94 1014.86 1014.69 1014.45 1014.12 1013.71 1013.22 1012.68 1012.12 1011.54 1010.96 1010.39 1009.83 1009.26 1008.69 1008.08 1007.42 1006.70 1005.89 1005.01 1004.07 1003.11 1002.16 1001.28 1000.53 999.94 999.56 999.44 999.56 999.92 1000.49 1001.21 1002.04 1002.91 1003.77 1004.57 1005.28
1015.62 1015.30 1015.07 1014.92 1014.83 1014.78 1014.74 1014.67 1014.56 1014.39 1014.13 1013.78 1013.36 1012.86 1012.32 1011.75 1011.17 1010.60 1010.04 1009.51 1008.97 1008.43 1007.86 1007.23 1006.54 1005.75 1004.88 1003.94 1002.95 1001.96 1001.02 1000.18 999.51 999.04 998.82 998.86 999.15 999.67 1000.37 1001.20 1002.09 1003.01 1003.88 1004.68
1015.64 1015.34 1015.10 1014.93 1014.80 1014.69 1014.60 1014.47 1014.31 1014.08 1013.77 1013.39 1012.93 1012.41 1011.85 1011.27 1010.68 1010.10 1009.54 1009.01 1008.50 1007.98 1007.44 1006.85 1006.18 1005.43 1004.59 1003.66 1002.67 1001.67 1000.70 999.81 999.07 998.52 998.22 998.17 998.39 998.84 999.50 1000.32 1001.24 1002.20 1003.15 1004.04
1015.84 1015.56 1015.31 1015.09 1014.90 1014.72 1014.53 1014.32 1014.07 1013.76 1013.40 1012.96 1012.45 1011.90 1011.31 1010.70 1010.09 1009.51 1008.95 1008.42 1007.91 1007.40 1006.88 1006.32 1005.69 1004.98 1004.16 1003.26 1002.29 1001.28 1000.29 999.37 998.57 997.96 997.58 997.45 997.59 997.98 998.60 999.40 1000.33 1001.33 1002.34 1003.32
1016.17 1015.89 1015.60 1015.33 1015.05 1014.77 1014.48 1014.17 1013.82 1013.42 1012.97 1012.47 1011.92 1011.33 1010.72 1010.09 1009.47 1008.87 1008.31 1007.78 1007.27 1006.77 1006.27 1005.72 1005.11 1004.42 1003.63 1002.75 1001.79 1000.79 999.78 998.83 997.99 997.32 996.86 996.66 996.73 997.06 997.63 998.41 999.34 1000.37 1001.45 1002.52
1016.51 1016.21 1015.88 1015.53 1015.16 1014.78 1014.37 1013.95 1013.50 1013.01 1012.49 1011.94 1011.35 1010.73 1010.10 1009.47 1008.85 1008.25 1007.68 1007.15 1006.64 1006.14 1005.63 1005.09 1004.48 1003.80 1003.02 1002.14 1001.19 1000.18 999.15 998.18 997.29 996.57 996.05 995.78 995.79 996.06 996.59 997.35 998.29 999.35 1000.48 1001.63
1016.73 1016.39 1016.00 1015.57 1015.11 1014.63 1014.13 1013.60 1013.07 1012.51 1011.94 1011.35 1010.74 1010.11 1009.49 1008.86 1008.25 1007.65 1007.09 1006.55 1006.03 1005.52 1005.00 1004.44 1003.82 1003.12 1002.33 1001.44 1000.47 999.45 998.41 997.40 996.49 995.72 995.15 994.84 994.79 995.02 995.52 996.26 997.20 998.29 999.47 1000.68
1016.71 1016.33 1015.88 1015.39 1014.86 1014.29 1013.71 1013.12 1012.53 1011.93 1011.33 1010.72 1010.11 1009.50 1008.89 1008.28 1007.68 1007.10 1006.54 1005.99 1005.46 1004.92 1004.37 1003.77 1003.12 1002.39 1001.57 1000.66 999.67 998.63 997.57 996.55 995.62 994.83 994.23 993.89 993.81 994.01 994.49 995.21 996.16 997.26 998.47 999.73
1016.40 1015.98 1015.50 1014.96 1014.38 1013.77 1013.14 1012.52 1011.90 1011.29 1010.68 1010.09 1009.50 1008.91 1008.32 1007.74 1007.16 1006.59 1006.03 1005.47 1004.91 1004.34 1003.74 1003.10 1002.40 1001.63 1000.77 999.84 998.83 997.78 996.72 995.70 994.77 993.98 993.39 993.03 992.94 993.13 993.60 994.31 995.25 996.36 997.60 998.89
1015.79 1015.36 1014.86 1014.30 1013.71 1013.10 1012.47 1011.85 1011.24 1010.64 1010.06 1009.49 1008.93 1008.37 1007.81 1007.25 1006.69 1006.12 1005.54 1004.96 1004.37 1003.76 1003.11 1002.42 1001.68 1000.87 999.99 999.03 998.03 996.99 995.95 994.96 994.06 993.30 992.73 992.40 992.32 992.51 992.97 993.68 994.61 995.71 996.94 998.24
1014.94 1014.52 1014.03 1013.50 1012.93 1012.35 1011.75 1011.17 1010.59 1010.03 1009.49 1008.96 1008.43 1007.90 1007.36 1006.82 1006.26 1005.68 1005.09 1004.48 1003.85 1003.20 1002.51 1001.78 1001.00 1000.17 999.28 998.34 997.35 996.36 995.37 994.44 993.60 992.90 992.39 992.10 992.05 992.25 992.71 993.41 994.31 995.39 996.59 997.86
1013.93 1013.54 1013.10 1012.62 1012.11 1011.59 1011.05 1010.52 1010.00 1009.50 1009.00 1008.50 1008.01 1007.50 1006.98 1006.44 1005.87 1005.28 1004.67 1004.03 1003.37 1002.68 1001.97 1001.21 1000.43 999.60 998.73 997.83 996.90 995.98 995.08 994.24 993.50 992.89 992.45 992.22 992.21 992.43 992.89 993.57 994.43 995.46 996.60 997.82
1012.87 1012.53 1012.15 1011.74 1011.31 1010.85 1010.40 1009.94 1009.48 1009.03 1008.57 1008.11 1007.65 1007.15 1006.64 1006.10 1005.52 1004.92 1004.29 1003.63 1002.95 1002.25 1001.52 1000.78 1000.01 999.21 998.40 997.57 996.74 995.92 995.14 994.42 993.79 993.29 992.95 992.78 992.82 993.06 993.51 994.15 994.96 995.92 996.99 998.13
1011.81 1011.53 1011.23 1010.89 1010.53 1010.16 1009.77 1009.38 1008.99 1008.59 1008.18 1007.75 1007.31 1006.83 1006.32 1005.78 1005.20 1004.59 1003.95 1003.29 1002.61 1001.91 1001.21 1000.50 999.77 999.05 998.32 997.59 996.88 996.19 995.54 994.96 994.46 994.07 993.83 993.74 993.82 994.07 994.50 995.10 995.84 996.72 997.69 998.73
1010.81 1010.58 1010.33 1010.06 1009.77 1009.47 1009.15 1008.82 1008.48 1008.12 1007.75 1007.36 1006.93 1006.47 1005.98 1005.44 1004.87 1004.27 1003.65 1003.00 1002.34 1001.68 1001.02 1000.37 999.72 999.08 998.46 997.85 997.27 996.72 996.22 995.77 995.40 995.13 994.97 994.95 995.06 995.33 995.73 996.28 996.95 997.73 998.60 999.53
Thickness
5714 5719 5721 5719 5719 5720 5712 5703 5693 5700 5705 5714 5723 5728 5733 5736 5737 5737 5737 5736 5736 5735 5734 5733 5732 5731 5729 5726 5723 5720 5715 5711 5708 5705 5701 5698 5694 5691 5689 5686 5684 5681 5678 5676
5709 5718 5717 5714 5717 5718 5716 5713 5707 5706 5707 5721 5725 5728 5728 5729 5730 5730 5731 5733 5734 5734 5733 5732 5731 5730 5728 5726 5723 5720 5715 5712 5709 5705 5701 5697 5694 5691 5688 5685 5683 5680 5678 5675
5691 5702 5707 5697 5710 5711 5707 5708 5706 5697 5704 5716 5718 5720 5720 5722 5723 5724 5727 5729 5730 5732 5732 5732 5732 5731 5728 5727 5723 5718 5715 5712 5708 5704 5701 5697 5695 5691 5687 5685 5682 5679 5677 5675
5684 5691 5684 5697 5716 5714 5705 5701 5703 5702 5705 5709 5713 5717 5719 5720 5718 5720 5723 5725 5727 5729 5730 5732 5733 5731 5729 5725 5720 5717 5713 5710 5707 5704 5700 5697 5693 5690 5687 5684 5681 5679 5676 5674
5674 5675 5681 5697 5709 5708 5700 5689 5694 5695 5699 5704 5710 5710 5709 5714 5716 5716 5720 5722 5725 5727 5728 5729 5729 5729 5725 5721 5718 5714 5712 5709 5707 5704 5700 5695 5692 5689 5686 5683 5680 5678 5676 5673
5671 5672 5667 5681 5702 5711 5700 5675 5686 5688 5689 5692 5695 5683 5688 5704 5708 5711 5714 5717 5719 5722 5723 5722 5723 5723 5719 5717 5714 5712 5712 5710 5707 5704 5700 5696 5692 5689 5686 5683 5680 5677 5675 5672
5666 5663 5667 5682 5694 5697 5668 5661 5677 5679 5680 5680 5676 5676 5685 5695 5699 5701 5704 5708 5711 5712 5712 5714 5716 5715 5712 5711 5711 5713 5712 5708 5705 5702 5699 5696 5692 5688 5684 5681 5678 5674 5672 5670
5655 5651 5656 5676 5679 5666 5661 5667 5668 5670 5671 5670 5671 5675 5678 5682 5685 5689 5692 5695 5697 5699 5701 5704 5706 5705 5704 5705 5709 5709 5706 5704 5701 5699 5697 5694 5688 5685 5682 5678 5674 5670 5668 5665
5656 5653 5660 5665 5663 5663 5661 5658 5659 5659 5660 5661 5661 5662 5665 5668 5670 5674 5677 5680 5683 5685 5689 5693 5694 5695 5695 5699 5701 5700 5699 5698 5697 5695 5692 5690 5686 5681 5677 5674 5671 5668 5664 5662
5649 5652 5653 5654 5654 5653 5652 5649 5649 5649 5649 5649 5648 5649 5651 5653 5655 5658 5662 5665 5668 5671 5674 5678 5682 5685 5688 5691 5692 5692 5691 5691 5690 5688 5686 5684 5682 5679 5675 5672 5668 5666 5662 5659
5637 5640 5642 5642 5640 5640 5640 5639 5638 5638 5637 5636 5635 5635 5636 5638 5640 5643 5646 5649 5652 5655 5659 5664 5669 5673 5677 5680 5682 5682 5683 5684 5683 5682 5680 5677 5675 5673 5672 5671 5670 5666 5662 5659
5628 5632 5626 5626 5629 5629 5626 5625 5625 5624 5623 5623 5621 5620 5622 5623 5625 5627 5630 5633 5636 5640 5644 5650 5655 5661 5665 5668 5670 5672 5673 5674 5674 5673 5672 5669 5665 5661 5662 5663 5664 5663 5661 5658
5628 5628 5622 5620 5618 5616 5613 5612 5611 5609 5608 5607 5607 5606 5607 5607 5609 5611 5614 5616 5620 5624 5629 5635 5641 5646 5651 5655 5658 5661 5664 5666 5666 5665 5664 5661 5659 5657 5652 5650 5652 5653 5653 5651
5620 5615 5609 5606 5603 5602 5599 5598 5596 5594 5593 5592 5591 5591 5591 5592 5594 5595 5597 5600 5605 5609 5614 5619 5625 5631 5637 5641 5645 5650 5653 5657 5658 5658 5658 5656 5655 5653 5650 5646 5642 5639 5641 5642
5606 5602 5596 5594 5591 5588 5585 5582 5579 5577 5577 5576 5575 5575 5575 5575 5578 5581 5584 5587 5590 5594 5599 5604 5610 5617 5622 5626 5632 5637 5642 5645 5648 5649 5649 5649 5648 5646 5643 5641 5638 5633 5629 5629
5592 5588 5583 5579 5576 5573 5570 5567 5563 5561 5561 5560 5560 5560 5560 5561 5563 5566 5569 5572 5574 5579 5585 5590 5596 5603 5608 5613 5618 5625 5630 5636 5637 5637 5638 5638 5638 5637 5636 5634 5630 5627 5625 5623
5576 5570 5567 5564 5561 5559 5556 5552 5549 5547 5546 5546 5547 5548 5548 5549 5551 5553 5555 5558 5560 5565 5570 5575 5582 5589 5594 5599 5605 5611 5617 5622 5626 5627 5629 5631 5631 5631 5631 5629 5626 5623 5621 5619
5565 5560 5555 5550 5546 5544 5541 5539 5537 5535 5533 5533 5534 5535 5535 5535 5537 5540 5543 5545 5548 5552 5557 5562 5567 5574 5580 5586 5592 5598 5603 5609 5613 5617 5620 5621 5622 5623 5623 5623 5621 5617 5613 5610
5552 5548 5543 5539 5535 5530 5527 5525 5524 5522 5521 5521 5521 5522 5522 5523 5525 5528 5530 5531 5533 5538 5545 5549 5555 5560 5565 5572 5578 5585 5590 5596 5601 5606 5609 5612 5612 5613 5614 5614 5613 5610 5607 5604
5539 5535 5531 5527 5524 5519 5515 5513 5512 5511 5510 5510 5509 5510 5510 5512 5513 5514 5516 5518 5521 5525 5531 5536 5541 5546 5552 5559 5565 5571 5578 5584 5589 5593 5597 5600 5603 5604 5605 5606 5605 5603 5600 5598
5524 5521 5518 5515 5511 5508 5505 5501 5499 5499 5499 5498 5497 5497 5498 5500 5501 5502 5503 5507 5513 5515 5518 5524 5528 5533 5539 5546 5553 5558 5565 5572 5577 5582 5586 5590 5593 5594 5595 5596 5597 5596 5593 5591
5510 5507 5504 5501 5498 5495 5493 5490 5488 5487 5487 5487 5486 5486 5486 5487 5489 5491 5492 5494 5500 5504 5508 5512 5516 5522 5529 5535 5541 5546 5553 5560 5566 5571 5576 5580 5583 5585 5587 5587 5588 5587 5586 5583
5496 5493 5491 5488 5485 5483 5482 5480 5477 5476 5476 5475 5475 5474 5474 5476 5477 5478 5483 5488 5489 5494 5497 5501 5507 5513 5520 5524 5530 5536 5542 5550 5556 5561 5566 5571 5574 5577 5579 5579 5579 5578 5575 5573
5485 5483 5481 5478 5474 5470 5469 5469 5467 5466 5465 5465 5465 5465 5465 5466 5469 5471 5473 5478 5481 5485 5487 5491 5497 5504 5509 5513 5519 5526 5533 5540 5546 5552 5557 5561 5563 5566 5568 5569 5569 5567 5566 5563
5474 5471 5468 5465 5462 5460 5459 5458 5457 5456 5455 5455 5456 5457 5457 5456 5458 5462 5465 5467 5471 5475 5478 5483 5489 5494 5498 5503 5509 5516 5524 5530 5537 5542 5546 5550 5552 5554 5556 5558 5558 5557 5555 5553
5463 5461 5458 5455 5453 5451 5449 5447 5446 5446 5445 5446 5448 5449 5450 5451 5452 5454 5456 5459 5461 5465 5468 5472 5477 5482 5487 5493 5500 5506 5513 5520 5526 5531 5535 5539 5541 5543 5545 5546 5546 5546 5544 5543
5453 5450 5448 5446 5444 5442 5440 5438 5437 5437 5437 5437 5439 5442 5442 5444 5445 5446 5448 5450 5453 5456 5459 5463 5467 5472 5477 5483 5490 5497 5503 5510 5515 5520 5523 5527 5529 5532 5533 5534 5533 5533 5532 5531